Preview of NWS' New Version of Forecast
This preview is not operational and should not be used for support decisions.

Regional Weather Roundup (RWR)

Issued by National Weather Service (NWS)

                            
000
ASUS43 KDMX 221306
RWRIA 

WEATHER ROUNDUP FOR IOWA
NATIONAL WEATHER SERVICE DES MOINES IA
800 AM CDT WED MAY 22 2019

NOTE: "FAIR" INDICATES FEW OR NO CLOUDS BELOW 12,000 FEET WITH NO
SIGNIFICANT WEATHER AND/OR OBSTRUCTIONS TO VISIBILITY.

* - THESE STATIONS ARE NOT NWS STATIONS...THUS NOT UNDER NWS
QUALITY CONTROL.  THEY ALSO DO NOT REPORT WEATHER SUCH 
AS PRECIPITATION OR FOG.  

IAZ001>003-012>014-020>022-031>034-043>046-221400-
   NORTHWEST IOWA
  
CITY           SKY/WX    TMP DP  RH WIND       PRES   REMARKS
CARROLL *      CLOUDY    52  48  87 S23G31    29.50R                  
CHEROKEE *     CLOUDY    51  49  92 S22G28    29.43R                  
DENISON *      CLOUDY    52  48  87 S15G25    29.49R                  
LE MARS *      CLOUDY    50  50 100 S16G23    29.39R FOG              
SHELDON *      CLOUDY    52  50  93 S15       29.38R FOG              
SIOUX CITY     CLOUDY    50  46  86 S26G35    29.43R                  
SPENCER        CLOUDY    54  50  86 S14G23    29.41S                  
STORM LAKE *     N/A     52  50  93 S25G32    29.41R                  
$$
 
IAZ055>058-069>071-079>083-090>094-221400-
   SOUTHWEST IOWA
  
CITY           SKY/WX    TMP DP  RH WIND       PRES   REMARKS
ATLANTIC *       N/A     52  50  93 SW23G33   29.54R                  
AUDUBON *      CLOUDY    52  46  82 CALM      29.53R                  
CLARINDA *     SUNNY     54  46  76 SW17G25   29.62R                  
COUNCIL BLFS * MOSUNNY   50  48  93 SW22G31   29.52R                  
CRESTON *      SUNNY     55  48  76 S24       29.57R                  
HARLAN  *      CLOUDY    50  46  87 S24G32    29.51R                  
LAMONI         SUNNY     58  52  80 S16G26    29.62R                  
RED OAK *      PTSUNNY   52  48  87 S22G31    29.58R                  
SHENANDOAH *   SUNNY     52  46  82 SW23G31   29.58R                  
$$
 
IAZ047>049-059>061-072>074-084-221400-
   CENTRAL IOWA
  
CITY           SKY/WX    TMP DP  RH WIND       PRES   REMARKS
AMES           PTSUNNY   59  53  80 S18       29.55R                  
ANKENY *       CLOUDY    59  54  82 S16G23    29.56R                  
BOONE *        PTSUNNY   57  55  94 SW13G22   29.53R                  
CHARITON *     SUNNY     59  57  94 S22G28    29.60R                  
DES MOINES     MOSUNNY   59  52  77 S20G28    29.56R                  
GRINNELL*      SUNNY     60  54  82 S18G25    29.62R                  
KNOXVILLE *    MOSUNNY   61  54  77 S17G26    29.59R                  
MARSHALLTOWN   MOSUNNY   59  54  83 S21G33    29.56R                  
PELLA *        SUNNY     60  58  93 S16G24    29.62R                  
PERRY *        FAIR      56  52  85 S18G24    29.54R                  
$$
 
IAZ004>006-015-016-023>025-035-036-221400-
   NORTH CENTRAL IOWA
  
CITY           SKY/WX    TMP DP  RH WIND       PRES   REMARKS
ALGONA *         N/A     55  52  88 S29G36    29.45                   
CLARION *      CLOUDY    57  54  88 S28G37    29.50R                  
ESTHERVILLE    CLOUDY    52  49  89 S22G30    29.43R                  
FORT DODGE *   CLOUDY    53  48  83 S20G28    29.51R                  
MASON CITY     PTSUNNY   58  55  90 S28G37    29.51R                  
FOREST CITY *  PTSUNNY   55  55 100 S22G36    29.49R                  
IOWA FALLS *   PTSUNNY   59  55  87 S21G29    29.55R                  
$$

IAZ007>011-017>019-026>030-037>042-050>054-066-221400-
   NORTHEAST IOWA
  
CITY           SKY/WX    TMP DP  RH WIND       PRES   REMARKS
CEDAR RAPIDS   FAIR      59  56  89 S18G29    29.64S                  
CHARLES CITY * CLOUDY    59  55  88 S26G37    29.56R                  
CLINTON *      CLOUDY    61  58  90 SE18      29.73S                  
DECORAH *      CLOUDY    55  54  94 S18G31    29.60S                  
DUBUQUE        CLOUDY    57  55  93 S23G32    29.70R                  
MONTICELLO *   PTSUNNY   61  59  94 SE15G24   29.67F                  
OELWEIN *      PTSUNNY   59  59 100 S24G31    29.62S                  
WATERLOO       FAIR      61  55  81 S20G30    29.58S                  
$$
 
IAZ064-065-067-068-078-221400-
   EAST CENTRAL IOWA
  
CITY           SKY/WX    TMP DP  RH WIND       PRES   REMARKS
DAVENPORT      FAIR      61  56  83 S23G30    29.72F                  
IOWA CITY      FAIR      61  57  87 S12       29.69R                  
MT. PLEASANT * SUNNY     63  59  88 S16G23    29.69S                  
MUSCATINE *    FAIR      63  57  82 S13G21    29.69S                  
QUAD CITIES    FAIR      63  57  81 SE14G21   29.71F                  
$$
 
IAZ062-063-075>077-085>089-095>099-221400-
   SOUTHEAST IOWA
  
CITY           SKY/WX    TMP DP  RH WIND       PRES   REMARKS
BURLINGTON     SUNNY     63  54  72 S10G26    29.71S                  
FAIRFIELD *    SUNNY     61  55  82 S14G23    29.66R                  
FORT MADISON *   N/A     61  57  88 S12       29.72R                  
KEOKUK *       SUNNY     63  57  82 S9        29.71R                  
OSKALOOSA *    FAIR      60  54  79 S21       29.63R                  
CENTERVILLE *  FAIR      59  55  88 S14G22    29.65R                  
OTTUMWA        SUNNY     61  53  75 S17G30    29.63R                  
WASHINGTON *   SUNNY     63  63 100 S16       29.68R                  
$$

ABBREVIATIONS USED IN REMARKS
   TC - TEMPERATURES IN CELSIUS
  WCI - WIND CHILL INDEX
   HX - HEAT INDEX
  VSB - VISIBILITY  
$$